ACA604 CYEG-CYYC

Flight info

Callsign ACA604
Flight time 0h 27m
Altitude 24000
Route OLIMI Q814 ADVOX ADVOX9
Aircraft A320/M-SDE3FGHIRWY/LB1

Departure

Time 2026-05-03 21:08
Airport Edmonton International Airport (CYEG)

Arrival

Time 2026-05-03 21:35
Airport Calgary International Airport (CYYC)
Time Latitude Longitude Altitude Speed Heading
2026-05-03 20:49 53.30866 -113.58596 2384 ft 0 kts 86°
2026-05-03 20:57 53.30864 -113.58627 2388 ft 4 kts 86°
2026-05-03 20:57 53.30863 -113.58672 2392 ft 4 kts 86°
2026-05-03 20:57 53.30861 -113.58717 2392 ft 4 kts 86°
2026-05-03 20:57 53.30859 -113.58753 2388 ft 4 kts 97°
2026-05-03 20:58 53.30869 -113.58786 2389 ft 4 kts 158°
2026-05-03 20:58 53.30893 -113.58793 2386 ft 4 kts 176°
2026-05-03 20:58 53.30900 -113.58793 2384 ft 0 kts 176°
2026-05-03 21:00 53.30897 -113.58793 2384 ft 2 kts 176°
2026-05-03 21:00 53.30831 -113.58858 2384 ft 15 kts 221°
2026-05-03 21:01 53.30742 -113.58874 2384 ft 13 kts 178°
2026-05-03 21:01 53.30659 -113.58870 2384 ft 11 kts 178°
2026-05-03 21:01 53.30588 -113.58855 2384 ft 10 kts 170°
2026-05-03 21:01 53.30527 -113.58841 2384 ft 9 kts 175°
2026-05-03 21:02 53.30449 -113.58801 2387 ft 11 kts 134°
2026-05-03 21:02 53.30398 -113.58711 2384 ft 10 kts 133°
2026-05-03 21:02 53.30345 -113.58617 2384 ft 14 kts 133°
2026-05-03 21:02 53.30274 -113.58502 2386 ft 13 kts 135°
2026-05-03 21:03 53.30212 -113.58400 2387 ft 12 kts 135°
2026-05-03 21:03 53.30114 -113.58239 2386 ft 29 kts 135°
2026-05-03 21:03 53.29975 -113.58003 2386 ft 27 kts 134°
2026-05-03 21:03 53.29847 -113.57785 2386 ft 25 kts 134°
2026-05-03 21:04 53.29729 -113.57587 2385 ft 23 kts 135°
2026-05-03 21:04 53.29618 -113.57408 2388 ft 21 kts 136°
2026-05-03 21:04 53.29518 -113.57244 2386 ft 19 kts 136°
2026-05-03 21:04 53.29429 -113.57094 2387 ft 17 kts 133°
2026-05-03 21:05 53.29350 -113.56955 2386 ft 16 kts 134°
2026-05-03 21:05 53.29279 -113.56833 2386 ft 14 kts 134°
2026-05-03 21:05 53.29213 -113.56721 2384 ft 16 kts 135°
2026-05-03 21:05 53.29120 -113.56574 2385 ft 18 kts 135°
2026-05-03 21:06 53.29038 -113.56430 2386 ft 16 kts 133°
2026-05-03 21:06 53.28965 -113.56304 2384 ft 14 kts 138°
2026-05-03 21:06 53.28883 -113.56235 2384 ft 12 kts 170°
2026-05-03 21:06 53.28804 -113.56242 2384 ft 11 kts 185°
2026-05-03 21:07 53.28733 -113.56279 2385 ft 13 kts 218°
2026-05-03 21:07 53.28752 -113.56454 2384 ft 17 kts 316°
2026-05-03 21:07 53.28859 -113.56621 2384 ft 39 kts 316°
2026-05-03 21:07 53.29220 -113.57213 2385 ft 104 kts 315°
2026-05-03 21:08 53.29864 -113.58271 2390 ft 154 kts 315°
2026-05-03 21:08 53.30667 -113.59670 2643 ft 175 kts 315°
2026-05-03 21:08 53.31498 -113.61195 3417 ft 183 kts 314°
2026-05-03 21:08 53.32383 -113.62885 3840 ft 206 kts 312°
2026-05-03 21:09 53.33376 -113.64821 4276 ft 231 kts 313°
2026-05-03 21:09 53.34516 -113.66850 4953 ft 244 kts 315°
2026-05-03 21:09 53.35726 -113.68862 5971 ft 245 kts 316°
2026-05-03 21:09 53.36783 -113.71072 7023 ft 244 kts 299°
2026-05-03 21:10 53.37193 -113.73856 7932 ft 255 kts 274°
2026-05-03 21:10 53.36775 -113.76804 8821 ft 271 kts 248°
2026-05-03 21:10 53.35481 -113.79218 9595 ft 291 kts 225°
2026-05-03 21:10 53.33888 -113.81383 10383 ft 294 kts 226°
2026-05-03 21:11 53.32284 -113.83519 11179 ft 302 kts 226°
2026-05-03 21:11 53.30536 -113.85741 11382 ft 331 kts 221°
2026-05-03 21:11 53.28302 -113.87323 11591 ft 368 kts 202°
2026-05-03 21:11 53.25784 -113.88480 11758 ft 391 kts 201°
2026-05-03 21:12 53.23072 -113.89630 12251 ft 402 kts 200°
2026-05-03 21:12 53.20337 -113.90747 12871 ft 408 kts 201°
2026-05-03 21:12 53.17593 -113.91868 13517 ft 413 kts 202°
2026-05-03 21:12 53.14784 -113.93030 14095 ft 419 kts 202°
2026-05-03 21:13 53.11948 -113.94229 14686 ft 422 kts 202°
2026-05-03 21:13 53.09101 -113.95460 15306 ft 424 kts 203°
2026-05-03 21:13 53.06232 -113.96719 15941 ft 426 kts 203°
2026-05-03 21:13 53.03359 -113.97982 16602 ft 429 kts 203°
2026-05-03 21:14 53.00462 -113.99250 17240 ft 432 kts 202°
2026-05-03 21:14 52.97444 -114.00017 17773 ft 447 kts 191°
2026-05-03 21:14 52.94330 -114.00333 18332 ft 451 kts 190°
2026-05-03 21:14 52.91183 -114.00617 18806 ft 454 kts 190°
2026-05-03 21:15 52.88010 -114.00883 19254 ft 458 kts 190°
2026-05-03 21:15 52.84812 -114.01146 19689 ft 462 kts 189°
2026-05-03 21:15 52.81584 -114.01409 20120 ft 466 kts 189°
2026-05-03 21:15 52.78335 -114.01677 20516 ft 469 kts 189°
2026-05-03 21:16 52.75063 -114.01955 20957 ft 472 kts 189°
2026-05-03 21:16 52.71772 -114.02244 21372 ft 475 kts 189°
2026-05-03 21:16 52.68465 -114.02538 21773 ft 478 kts 189°
2026-05-03 21:16 52.65131 -114.02835 22162 ft 481 kts 189°
2026-05-03 21:17 52.61777 -114.03137 22550 ft 484 kts 189°
2026-05-03 21:17 52.59546 -114.03339 22791 ft 486 kts 189°
2026-05-03 21:17 52.55016 -114.03745 23284 ft 489 kts 189°
2026-05-03 21:17 52.51650 -114.04039 23604 ft 492 kts 189°
2026-05-03 21:18 52.48188 -114.04334 23863 ft 492 kts 189°
2026-05-03 21:18 52.44802 -114.04623 23936 ft 497 kts 189°
2026-05-03 21:18 52.41321 -114.04928 23934 ft 505 kts 188°
2026-05-03 21:18 52.37794 -114.05238 23938 ft 508 kts 188°
2026-05-03 21:19 52.34260 -114.05541 23944 ft 509 kts 188°
2026-05-03 21:19 52.30722 -114.05838 23931 ft 510 kts 188°
2026-05-03 21:19 52.27177 -114.06137 23932 ft 510 kts 188°
2026-05-03 21:19 52.23635 -114.06442 23939 ft 509 kts 188°
2026-05-03 21:20 52.20105 -114.06749 23934 ft 508 kts 188°
2026-05-03 21:20 52.16577 -114.07054 23936 ft 508 kts 188°
2026-05-03 21:20 52.13045 -114.07356 23935 ft 508 kts 188°
2026-05-03 21:20 52.09520 -114.07658 23938 ft 508 kts 188°
2026-05-03 21:21 52.05991 -114.07959 23936 ft 507 kts 188°
2026-05-03 21:21 52.02467 -114.08259 23954 ft 507 kts 188°
2026-05-03 21:21 51.98935 -114.08561 23940 ft 507 kts 188°
2026-05-03 21:21 51.95415 -114.08863 23946 ft 507 kts 188°
2026-05-03 21:22 51.91893 -114.09163 23947 ft 506 kts 188°
2026-05-03 21:22 51.88368 -114.09466 23808 ft 510 kts 187°
2026-05-03 21:22 51.84817 -114.09770 22741 ft 511 kts 187°
2026-05-03 21:22 51.81265 -114.10071 21677 ft 507 kts 187°
2026-05-03 21:23 51.77770 -114.10357 20698 ft 501 kts 187°
2026-05-03 21:23 51.74306 -114.10642 19961 ft 493 kts 187°
2026-05-03 21:23 51.70901 -114.10925 19165 ft 487 kts 187°
2026-05-03 21:23 51.67530 -114.11210 18378 ft 482 kts 187°
2026-05-03 21:24 51.64224 -114.11489 17142 ft 470 kts 187°
2026-05-03 21:24 51.61019 -114.11755 16294 ft 449 kts 187°
2026-05-03 21:24 51.58010 -114.11998 15577 ft 429 kts 187°
2026-05-03 21:24 51.55084 -114.12233 14874 ft 414 kts 187°
2026-05-03 21:25 51.52222 -114.12471 14207 ft 410 kts 187°
2026-05-03 21:25 51.49394 -114.12710 13537 ft 403 kts 187°
2026-05-03 21:25 51.46612 -114.12947 12868 ft 399 kts 186°
2026-05-03 21:25 51.43840 -114.13183 12243 ft 397 kts 186°
2026-05-03 21:26 51.41091 -114.13418 11616 ft 393 kts 186°
2026-05-03 21:26 51.38391 -114.13645 11308 ft 381 kts 186°
2026-05-03 21:26 51.35798 -114.13857 11181 ft 364 kts 186°
2026-05-03 21:26 51.33361 -114.14052 11050 ft 337 kts 186°
2026-05-03 21:27 51.31106 -114.14227 10869 ft 314 kts 187°
2026-05-03 21:27 51.28961 -114.14400 10512 ft 305 kts 187°
2026-05-03 21:27 51.26836 -114.14582 10274 ft 306 kts 187°
2026-05-03 21:27 51.24717 -114.14766 10035 ft 304 kts 187°
2026-05-03 21:28 51.22606 -114.14944 9869 ft 304 kts 187°
2026-05-03 21:28 51.20498 -114.15119 9753 ft 303 kts 186°
2026-05-03 21:28 51.19107 -114.15236 9655 ft 303 kts 185°
2026-05-03 21:28 51.17007 -114.15414 9513 ft 302 kts 187°
2026-05-03 21:29 51.14261 -114.15642 9345 ft 291 kts 186°
2026-05-03 21:29 51.12297 -114.15795 9031 ft 278 kts 186°
2026-05-03 21:29 51.10358 -114.15954 8412 ft 277 kts 186°
2026-05-03 21:29 51.08484 -114.16109 8208 ft 264 kts 186°
2026-05-03 21:30 51.07281 -114.16207 8117 ft 258 kts 185°
2026-05-03 21:30 51.05479 -114.16352 7997 ft 255 kts 185°
2026-05-03 21:30 51.03693 -114.16423 7691 ft 258 kts 183°
2026-05-03 21:30 51.01928 -114.16401 7378 ft 258 kts 177°
2026-05-03 21:31 51.00206 -114.15633 7077 ft 258 kts 151°
2026-05-03 21:31 50.98829 -114.13873 6772 ft 253 kts 127°
2026-05-03 21:31 50.97992 -114.11463 6464 ft 247 kts 103°
2026-05-03 21:31 50.97787 -114.08853 6172 ft 230 kts 80°
2026-05-03 21:32 50.98145 -114.06482 5907 ft 209 kts 59°
2026-05-03 21:32 50.98881 -114.04623 5673 ft 198 kts 43°
2026-05-03 21:32 50.99887 -114.03247 5462 ft 183 kts 25°
2026-05-03 21:32 51.00965 -114.02449 5258 ft 162 kts 12°
2026-05-03 21:33 51.02035 -114.02135 5070 ft 151 kts
2026-05-03 21:33 51.03057 -114.02130 5009 ft 145 kts 359°
2026-05-03 21:33 51.04072 -114.02128 4969 ft 147 kts 359°
2026-05-03 21:33 51.05092 -114.02133 4552 ft 146 kts 358°
2026-05-03 21:34 51.06090 -114.02124 4421 ft 144 kts
2026-05-03 21:34 51.07098 -114.02117 4159 ft 146 kts 358°
2026-05-03 21:34 51.08151 -114.02152 3976 ft 152 kts
2026-05-03 21:34 51.09211 -114.02153 3717 ft 151 kts
2026-05-03 21:35 51.10259 -114.02141 3567 ft 145 kts
2026-05-03 21:35 51.11140 -114.02116 3561 ft 104 kts
2026-05-03 21:35 51.11693 -114.02126 3557 ft 55 kts 358°
2026-05-03 21:35 51.11935 -114.02133 3560 ft 29 kts
2026-05-03 21:36 51.12186 -114.02131 3560 ft 36 kts
2026-05-03 21:36 51.12357 -114.02031 3556 ft 15 kts 35°
2026-05-03 21:36 51.12443 -114.01940 3557 ft 13 kts 28°
2026-05-03 21:36 51.12487 -114.01907 3557 ft 6 kts 25°
2026-05-03 21:37 51.12529 -114.01874 3557 ft 7 kts 30°
2026-05-03 21:37 51.12576 -114.01823 3558 ft 9 kts 36°
2026-05-03 21:37 51.12607 -114.01737 3559 ft 10 kts 72°
2026-05-03 21:37 51.12657 -114.01678 3555 ft 10 kts
2026-05-03 21:38 51.12734 -114.01681 3557 ft 12 kts 359°
2026-05-03 21:38 51.12822 -114.01683 3558 ft 13 kts 359°
2026-05-03 21:38 51.12893 -114.01621 3559 ft 13 kts 68°
2026-05-03 21:38 51.12908 -114.01498 3559 ft 10 kts 55°
2026-05-03 21:39 51.12955 -114.01437 3559 ft 7 kts 71°
2026-05-03 21:39 51.12949 -114.01365 3559 ft 5 kts 102°
2026-05-03 21:39 51.12946 -114.01338 3559 ft 1 kts 98°
2026-05-03 21:39 51.12946 -114.01334 3559 ft 1 kts 100°
2026-05-03 21:40 51.12945 -114.01328 3559 ft 0 kts 100°
2026-05-03 21:40 51.12944 -114.01325 3559 ft 0 kts 101°